User: anonymous   Login
Location: Bílinka
(49.3579°N, 14.3767°E)
Time: 05:04:59
(UTC+00:00)
Language:

Cosmos 1606 Rocket - Orbit

View from above orbital plane
View from above orbital plane
View from above satellite
View from above satellite

Ground track
Ground track

The orbit data is extracted from the following two-line orbital elements,

1 15370U 84111B   23152.39553924  .00000540  00000-0  61322-4 0  9991
2 15370  82.5145 127.8746 0022381  80.3625 280.0118 14.84266853 65624
Epoch (UTC): 01 June 2023 09:29:34
Eccentricity: 0.0022381
inclination: 82.5145°
perigee height: 600 km
apogee height: 631 km
right ascension of ascending node: 127.8746°
argument of perigee: 80.3625°
revolutions per day: 14.84266853
mean anomaly at epoch: 280.0118°
orbit number at epoch: 6562

The dashed part of the orbit path shows where the satellite is in the earth's shadow,  

DLR